ATLAS 5 CENTAUR DEB, 44654

Orbit data source: Space-Track

ATLAS 5 CENTAUR DEB, 44654 is space debris in HEO originally from a launch on Wed, 17 Oct 2018 UTC launched from the Air Force Eastern Test Range (AFETR). Debris objects in space refer to the collection of defunct objects orbiting the Earth. Examples of debris include non-operational satellites, rocket bodies, and fragments generated from explosions, collisions, or faulty payload assembly.

Loading next visibility...
Identifier
44654, 2018-079Q
Orbit
HEO
Country
Flag of USUS
Related business
Flag of USUnited Launch Alliance/Lockheed Martin (US)
Manufacturer
ULA Decatur
Mission
Spacecraft
Bus & Motor
Unknown
Mass
Unknown
Launch date (UTC)
2018-10-17 (8 years ago)
Launch vehicle
Unknown
Launch site
Air Force Eastern Test Range (AFETR)
Object type
Payload
Rocket body
Debris
Shape & HBR
Unknown shape, 1.1 m
Radar Cross Section
Medium (>0.1 m² and <1 m²)

Expand to show TLE details & history
Last TLE update: 1 day ago

TLE from 1 day ago
0 ATLAS 5 CENTAUR DEB
1 44654U 18079Q   26167.08173768 -.00000121  00000-0  00000-0 0  9995
2 44654  13.5780  34.5923 4681322 311.6798  16.7035  1.80726268 45276
Epoch: 2026-06-16T01:57Z
TLE epoch observation values (Epoch: 2026-06-16T01:57:42.135Z)
Latitude
0.0001°
Longitude
100.7722°
Altitude
10,613.061 km
Speed
5.737 km/s
True Right ascension
02h 18m 13s
True Declination
0° 00' 00"
Sunlit
Object was in daylight at epoch
Visualization orbit readout
Latitude
Unknown
Longitude
Unknown
Altitude
Unknown
Speed
Unknown
Apparent Right ascension
Unknown
Apparent Declination
Unknown
Sunlit
N/A
Visualization observer readout
Local Sidereal Time
19:28:57
Azimuth
Unknown
Elevation
Unknown
Doppler factor
Unknown
Orbital elements
Apogee altitude
35,422.65 km
Perigee altitude
8,765.249 km
Semi-major axis
28,472.086 km
Eccentricity
0.46813
Inclination
13.578°
RAAN
34.5923°
Arg. of periapsis
311.6798°
True anomaly
48.28092°
Mean anomaly
16.7035°
Eccentric anomaly
30.19244°
Mean motion
0.45177 °/min
Orbital period
796.87 mins
BSTAR
0
Loading maneuver chart data...
Computing Atmospheric mass density...

Documentation

Showing up to 5 results
|